User: anonymous   Login
Location: Unspecified
(0.0000°N, 0.0000°E)
Time: 02:46:09
(UTC+00:00)
Language:

Kosmos-2180 - Orbit

View from above orbital plane
View from above orbital plane
View from above satellite
View from above satellite

Ground track
Ground track

The orbit data is extracted from the following two-line orbital elements,

1 21875U 92008A   17147.55117503 +.00000019 +00000-0 +37115-5 0  9991
2 21875 082.9250 152.1925 0037704 173.9377 334.5959 13.73720120266675
Epoch (UTC): 27 May 2017 13:13:41
Eccentricity: 0.0037704
inclination: 82.9250°
perigee height: 958 km
apogee height: 1014 km
right ascension of ascending node: 152.1925°
argument of perigee: 173.9377°
revolutions per day: 13.73720120
mean anomaly at epoch: 334.5959°
orbit number at epoch: 26667

The dashed part of the orbit path shows where the satellite is in the earth's shadow,  

DLR